Regional Weather Roundup
Issued by NWS

Home | Current Version | Previous Version | Text Only | Print | Product List | Glossary Off
Versions: 1 2 3 4 5 6 7 8 9 10 11 12 13 14 15 16 17 18 19 20 21 22 23 24 25 26 27 28 29 30 31 32 33 34 35 36 37 38 39 40 41 42 43 44 45 46 47 48 49 50

000
ASUS43 KDMX 101906
RWRIA

WEATHER ROUNDUP FOR IOWA
NATIONAL WEATHER SERVICE DES MOINES IA
100 PM CST SUN DEC 10 2017

NOTE: "FAIR" INDICATES FEW OR NO CLOUDS BELOW 12,000 FEET WITH NO
SIGNIFICANT WEATHER AND/OR OBSTRUCTIONS TO VISIBILITY.

* - THESE STATIONS ARE NOT NWS STATIONS...THUS NOT UNDER NWS
QUALITY CONTROL.  THEY ALSO DO NOT REPORT WEATHER SUCH
AS PRECIPITATION OR FOG.

IAZ001>003-012>014-020>022-031>034-043>046-102000-
   NORTHWEST IOWA

CITY           SKY/WX    TMP DP  RH WIND       PRES   REMARKS
CARROLL *      SUNNY     46  25  42 NW16G23   30.04S
CHEROKEE *     SUNNY     43  26  52 NW14      30.06S
DENISON *      SUNNY     46  25  42 NW14G21   30.08S
LE MARS *      SUNNY     43  28  56 NW15G22   30.08S
ORANGE CITY *  SUNNY     43  32  65 NW14      30.06S
SHELDON *      SUNNY     39  28  65 NW12G17   30.04S WCI  32
SIOUX CITY     SUNNY     48  28  46 NW20      30.08F
SPENCER        SUNNY     39  27  62 W16       30.04S WCI  30
STORM LAKE *   SUNNY     43  25  49 NW16G25   30.04S
$$

IAZ055>058-069>071-079>083-090>094-102000-
   SOUTHWEST IOWA

CITY           SKY/WX    TMP DP  RH WIND       PRES   REMARKS
ATLANTIC *     SUNNY     48  27  43 NW17      30.06S
AUDUBON *      SUNNY     46  25  42 NW10G21   30.06R
CLARINDA *     SUNNY     50  27  40 NW16        N/A
COUNCIL BLFS * SUNNY     50  27  40 NW15      30.08S
CRESTON *      SUNNY     48  25  40 NW17      30.05S
HARLAN  *      SUNNY     48  27  43 NW21      30.10R
LAMONI         SUNNY     49  25  39 NW14      30.04F
RED OAK *      SUNNY     50  27  40 NW12G18   30.08F
SHENANDOAH *   SUNNY     52  27  37 NW17      30.10F
$$

IAZ047>049-059>061-072>074-084-102000-
   CENTRAL IOWA

CITY           SKY/WX    TMP DP  RH WIND       PRES   REMARKS
AMES           SUNNY     44  25  47 NW16      30.02S
ANKENY *       SUNNY     45  27  49 NW13G22   30.03S
BOONE *        SUNNY     43  25  49 NW16      30.01S
CHARITON *     SUNNY     46  25  42 NW16      30.02S
DES MOINES     CLOUDY    45  24  43 NW17G24   30.03R
GRINNELL*      SUNNY     40  25  54 NW18      30.01R WCI  31
KNOXVILLE *    SUNNY     45  23  42 NW16G23   30.01R
MARSHALLTOWN   SUNNY     40  24  53 NW16      30.00S WCI  31
NEWTON *       SUNNY     41  25  52 NW18G25   30.01S
PELLA *        SUNNY     44  25  47 N14G21    30.03R
PERRY *          N/A     44  23  43 NW13G18   30.04S
$$

IAZ004>006-015-016-023>025-035-036-102000-
   NORTH CENTRAL IOWA

CITY           SKY/WX    TMP DP  RH WIND       PRES   REMARKS
ALGONA *       SUNNY     39  25  56 NW16G23   30.01S WCI  30
CLARION *      SUNNY     39  25  56 NW18      30.01R WCI  30
ESTHERVILLE    SUNNY     38  27  64 NW15      30.02R WCI  29
FORT DODGE *   SUNNY     42  24  49 NW15G21   30.02
MASON CITY     SUNNY     36  22  56 NW15      30.00S WCI  27
FOREST CITY *    N/A     36  27  69 NW14      30.00S WCI  27
WEBSTER CITY * SUNNY     43  25  49 NW18G26   29.99S
IOWA FALLS *     N/A     40  25  55 NW18      30.01S WCI  30
$$

IAZ007>011-017>019-026>030-037>042-050>054-066-102000-
   NORTHEAST IOWA

CITY           SKY/WX    TMP DP  RH WIND       PRES   REMARKS
CEDAR RAPIDS   SUNNY     38  24  57 NW18G25   29.97R WCI  28
CHARLES CITY * CLOUDY    34  23  64 N16       29.98S WCI  23
CLINTON *      CLOUDY    35  23  61 NW17      29.95R WCI  25
DECORAH *      CLOUDY    28  23  80 NW10      29.95S WCI  19
DUBUQUE        CLOUDY    32  22  66 NW13      29.94S WCI  22
MONTICELLO *   CLOUDY    36  23  60 N15       29.96R WCI  26
OELWEIN *      CLOUDY    32  23  69 N14G21    29.98R WCI  22
WATERLOO       SUNNY     37  22  54 NW15      29.99S WCI  28
$$

IAZ064-065-067-068-078-102000-
   EAST CENTRAL IOWA

CITY           SKY/WX    TMP DP  RH WIND       PRES   REMARKS
DAVENPORT      SUNNY     37  23  56 NW18      29.97R WCI  27
IOWA CITY      SUNNY     40  24  53 NW18G26   30.00R WCI  31
MT. PLEASANT * SUNNY     42  24  48 NW16G22   29.98S
MUSCATINE *    SUNNY     41  25  52 NW14G22   29.98R
QUAD CITIES    SUNNY     40  24  53 NW15      29.95R WCI  32
$$

IAZ062-063-075>077-085>089-095>099-102000-
   SOUTHEAST IOWA

CITY           SKY/WX    TMP DP  RH WIND       PRES   REMARKS
BURLINGTON     SUNNY     42  25  50 NW15      29.96S
FAIRFIELD *    SUNNY     43  23  45 NW18G24   29.99R
FORT MADISON * SUNNY     43  27  52 W13       29.98S
KEOKUK *       SUNNY     43  25  49 NW12      29.98S
OSKALOOSA *      N/A     42  25  50 NW17G26   30.01R
OTTUMWA        SUNNY     44  25  47 NW20      30.00S
WASHINGTON *   SUNNY     41  25  52 NW22      30.00R
$$

ABBREVIATIONS USED IN REMARKS
   TC - TEMPERATURES IN CELSIUS
  WCI - WIND CHILL INDEX
   HX - HEAT INDEX
  VSB - VISIBILITY
$$





USA.gov is the U.S. government's official web portal to all federal, state and local government web resources and services.